Location: Detroit
(42.3310°N, 83.0460°W)
Time: 17:46:42
(UTC-05:00)

Explorer 7 - Visible Passes

Search period start: 02 March 2024 00:00
Search period end: 12 March 2024 01:00
Orbit: 470 x 631 km, 50.3° (Epoch: 02 March)

Date Brightness Start Highest point End Pass type
(mag) Time Alt. Az. Time Alt. Az. Time Alt. Az.
02 Mar 8.2 05:31:43 15° SSW 05:34:07 29° SE 05:37:21 10° ENE visible
03 Mar 7.5 05:27:08 25° SSW 05:28:45 41° SE 05:32:13 10° ENE visible
04 Mar 6.9 05:22:24 40° SSW 05:23:24 57° SE 05:27:01 10° ENE visible
05 Mar 6.4 05:17:32 62° SW 05:18:04 79° SSE 05:21:45 10° ENE visible
06 Mar 6.3 05:12:34 74° WNW 05:12:44 77° NNW 05:16:25 10° ENE visible
07 Mar 6.7 05:07:30 58° NNW 05:07:30 58° NNW 05:11:04 10° NE visible
08 Mar 7.1 05:02:22 45° N 05:02:22 45° N 05:05:40 10° NE visible
09 Mar 7.5 04:57:10 37° N 04:57:10 37° N 05:00:16 10° NE visible
10 Mar 7.8 05:51:56 31° N 05:51:56 31° N 05:54:52 10° NE visible
11 Mar 8.1 05:46:39 27° N 05:46:39 27° N 05:49:28 10° NE visible
